Weather History for Beaufort, NC

Change the Weather History Date:

Thursday, October 31, 2013

  Actual Average Record
Temperature  
Mean Temperature 64 °F -  
Max Temperature 72 °F 70 °F 83 °F (1971)
Min Temperature 55 °F 50 °F 32 °F (1968)
Degree Days  
Heating Degree Days 2    
Growing Degree Days 14 (Base 50)    
Moisture  
Dew Point 64 °F    
Average Humidity 91    
Maximum Humidity 100    
Minimum Humidity 76    
Precipitation  
Precipitation 0.04 in - - ()
Sea Level Pressure  
Sea Level Pressure 30.15 in    
Wind  
Wind Speed 6 mph (South)    
Max Wind Speed 23 mph    
Max Gust Speed 29 mph    
Visibility 6 miles    
Events Rain    
Averages and records for this station are not official NWS values.
T = Trace of Precipitation, MM = Missing Value Source: NWS Daily Summary

Daily Weather History Graph

Daily Weather History Graph

Search for Another Location

Airport:

Trip Planner

Search our weather history database for the weather conditions in past years. The results will help you decide how hot, cold, wet, or windy it might be!

Date:

Astronomy

Oct. 31, 2013 Rise Set
Actual Time 7:26 AM EDT 6:13 PM EDT
Civil Twilight 7:00 AM EDT 6:39 PM EDT
Nautical Twilight 6:30 AM EDT 7:09 PM EDT
Astronomical Twilight 6:01 AM EDT 7:38 PM EDT
Moon 4:20 AM EDT (10/31) 4:24 PM EDT (10/31)
Length of Visible Light 11h 39m
Length of Day
10h 46m
Waning Crescent, 10% of the Moon is Illuminated
Oct 31
Waning Crescent
Nov 3
New
Nov 10
First Quarter
Nov 17
Full
Nov 25
Last Quarter

Hourly Weather History & Observations

Time (EDT) Temp. Dew Point Humidity Pressure Visibility Wind Dir Wind Speed Gust Speed Precip Events Conditions
12:58 AM 57.9 °F 55.9 °F 93% 30.22 in 6.0 mi Calm Calm - N/A   Clear
1:58 AM 57.0 °F 55.9 °F 96% 30.22 in 7.0 mi Calm Calm - N/A   Clear
2:58 AM 55.9 °F 55.0 °F 97% 30.20 in 6.0 mi Calm Calm - N/A   Clear
3:58 AM 55.9 °F 55.0 °F 97% 30.20 in 7.0 mi Calm Calm - N/A   Clear
4:58 AM 55.9 °F 55.9 °F 100% 30.21 in 4.0 mi Calm Calm - N/A   Clear
5:58 AM 55.9 °F 55.9 °F 100% 30.21 in 6.0 mi Calm Calm - N/A   Clear
6:58 AM 55.9 °F 55.0 °F 97% 30.20 in 6.0 mi Calm Calm - N/A   Clear
7:58 AM 57.9 °F 57.0 °F 97% 30.19 in 6.0 mi Calm Calm - N/A   Clear
8:58 AM 63.0 °F 60.1 °F 90% 30.21 in 7.0 mi East 3.5 mph - N/A   Partly Cloudy
9:58 AM 69.1 °F 64.9 °F 87% 30.22 in 9.0 mi SSE 8.1 mph - N/A   Overcast
10:39 AM 69.8 °F 68.0 °F 94% 30.20 in 2.5 mi SSE 10.4 mph - 0.01 in Rain Light Rain
10:47 AM 69.8 °F 68.0 °F 94% 30.20 in 7.0 mi SSE 11.5 mph - 0.01 in   Overcast
10:54 AM 69.8 °F 68.0 °F 94% 30.19 in 5.0 mi SSE 10.4 mph - 0.01 in Rain Light Rain
10:58 AM 69.1 °F 68.0 °F 96% 30.19 in 4.0 mi SSE 9.2 mph - 0.01 in Rain Light Rain
11:00 AM 69.8 °F 68.0 °F 94% 30.19 in 4.0 mi SSE 10.4 mph - 0.00 in Rain Light Rain
11:47 AM 69.8 °F 68.0 °F 94% 30.18 in 5.0 mi SE 8.1 mph - 0.00 in   Overcast
11:58 AM 69.1 °F 68.0 °F 96% 30.18 in 5.0 mi SSE 9.2 mph - 0.00 in   Overcast
12:58 PM 69.1 °F 66.9 °F 93% 30.16 in 3.0 mi South 15.0 mph - 0.00 in Rain Light Rain
1:50 PM 69.8 °F 66.2 °F 88% 30.13 in 2.0 mi South 11.5 mph - 0.01 in Rain Light Rain
1:58 PM 68.0 °F 66.9 °F 96% 30.12 in 3.0 mi SSE 9.2 mph - 0.01 in Rain Light Rain
2:55 PM 69.8 °F 66.2 °F 88% 30.12 in 2.0 mi SSW 13.8 mph - 0.01 in Rain Rain
2:58 PM 69.1 °F 66.9 °F 93% 30.12 in 1.8 mi SSW 17.3 mph 23.0 mph 0.02 in Rain Rain
3:05 PM 69.8 °F 68.0 °F 94% 30.11 in 3.0 mi South 18.4 mph 26.5 mph 0.00 in Rain Light Rain
3:12 PM 69.8 °F 66.2 °F 88% 30.11 in 6.0 mi South 23.0 mph 28.8 mph 0.00 in   Overcast
3:58 PM 70.0 °F 64.9 °F 84% 30.11 in 6.0 mi South 11.5 mph 21.9 mph 0.00 in Rain Light Rain
4:58 PM 72.0 °F 66.0 °F 81% 30.09 in 10.0 mi SSW 11.5 mph - 0.00 in   Overcast
5:58 PM 72.0 °F 64.0 °F 76% 30.08 in 10.0 mi SSW 10.4 mph - N/A   Overcast
6:58 PM 71.1 °F 64.0 °F 78% 30.08 in 10.0 mi South 9.2 mph - N/A   Mostly Cloudy
7:58 PM 71.1 °F 66.9 °F 87% 30.07 in 10.0 mi South 6.9 mph - N/A   Clear
8:58 PM 72.0 °F 68.0 °F 87% 30.05 in 10.0 mi South 9.2 mph - N/A   Clear
9:58 PM 71.1 °F 66.9 °F 87% 30.05 in 10.0 mi South 8.1 mph - N/A   Clear
10:58 PM 71.1 °F 66.9 °F 87% 30.04 in 10.0 mi South 8.1 mph - N/A   Clear
11:58 PM 72.0 °F 66.0 °F 81% 30.02 in 10.0 mi South 9.2 mph - N/A   Clear